This demonstration page uses our WeatherBlox Daily Observations layout. Learn more.

Left ArrowRight Arrow

Hourly Observations for March 17, 2020

Temp ( °F °C ) Dew Point ( °F °C ) Humidity (%) Winds ( mph kmh ) Pressure ( in mb ) Visibility ( mi km ) Precip ( " mm )
12:17 am 00:17 Cloudy 39 3.9 32 0 76 76 N 14 22 30.34 1027 10 16.0934 0 0
12:54 am 00:54 Mostly Cloudy 37 2.8 31 -0.6 79 79 N 12 19 30.33 1027 10 16.0934 0 0
1:54 am 01:54 Clear 31 -0.6 28 -2.2 89 89 N 5 7 30.35 1028 10 16.0934 0 0
2:54 am 02:54 Clear 32 0 28 -2.2 85 85 Calm 30.36 1028 10 16.0934 0 0
3:54 am 03:54 Clear 27 -2.8 25 -3.9 92 92 Calm 30.35 1028 10 16.0934 0 0
4:54 am 04:54 Clear 30 -1.1 27 -2.8 88 88 WNW 3 6 30.35 1028 10 16.0934 0 0
5:54 am 05:54 Clear 25 -3.9 23 -5 92 92 Calm 30.36 1028 10 16.0934 0 0
6:54 am 06:54 Clear 24 -4.4 22 -5.6 91 91 N 6 9 30.37 1028 9 14.48406 0 0
7:54 am 07:54 Sunny 25 -3.9 23 -5 92 92 N 3 6 30.38 1029 10 16.0934 0 0
8:54 am 08:54 Sunny 32 0 28 -2.2 85 85 Calm 30.38 1029 10 16.0934 0 0
9:54 am 09:54 Sunny 37 2.8 29 -1.7 73 73 ENE 6 9 30.37 1028 10 16.0934 0 0
10:54 am 10:54 Sunny 40 4.4 29 -1.7 65 65 E 8 13 30.34 1027 10 16.0934 0 0
11:54 am 11:54 Partly Cloudy 44 6.7 31 -0.6 60 60 SE 7 11 30.33 1027 10 16.0934 0 0
12:22 pm 12:22 Mostly Cloudy 43 6.1 30 -1.1 60 60 ESE 7 11 30.32 1027 10 16.0934 0 0
12:35 pm 12:35 Partly Cloudy 45 7.2 31 -0.6 58 58 VRB 6 9 30.3 1026 10 16.0934 0 0
12:54 pm 12:54 Mostly Sunny 46 7.8 31 -0.6 56 56 SSE 9 15 30.29 1026 10 16.0934 0 0
1:54 pm 13:54 Partly Cloudy 47 8.3 31 -0.6 54 54 SSE 12 19 30.27 1025 10 16.0934 0 0
2:54 pm 14:54 Mostly Cloudy 47 8.3 32 0 56 56 SSE 13 20 30.22 1023 10 16.0934 0 0
3:54 pm 15:54 Cloudy 47 8.3 33 0.6 59 59 S 10 17 30.19 1022 10 16.0934 0 0
4:54 pm 16:54 Cloudy 46 7.8 34 1.1 63 63 S 15 24 30.18 1022 10 16.0934 0 0
5:17 pm 17:17 Cloudy with Light Rain 46 7.8 35 1.7 66 66 S 12 19 30.17 1022 8 12.87472 0.001 0.001
5:54 pm 17:54 Cloudy 45 7.2 36 2.2 71 71 SSE 13 20 30.16 1021 10 16.0934 0.01 0.254
6:54 pm 18:54 Cloudy 45 7.2 36 2.2 71 71 SSE 14 22 30.15 1021 10 16.0934 0 0
7:54 pm 19:54 Cloudy 44 6.7 37 2.8 76 76 SE 12 19 30.14 1021 10 16.0934 0 0
8:03 pm 20:03 Cloudy 44 6.7 37 2.8 76 76 SE 9 15 30.13 1020 10 16.0934 0 0
8:54 pm 20:54 Cloudy 44 6.7 38 3.3 79 79 SSE 10 17 30.11 1020 10 16.0934 0 0
9:15 pm 21:15 Cloudy with Light Rain 44 6.7 39 3.9 83 83 SE 9 15 30.12 1020 10 16.0934 0.001 0.001
9:54 pm 21:54 Cloudy 44 6.7 39 3.9 83 83 SE 9 15 30.09 1019 10 16.0934 0.001 0.001
10:54 pm 22:54 Cloudy with Light Rain 43 6.1 40 4.4 89 89 SSE 9 15 30.09 1019 6 9.65604 0.001 0.001
11:41 pm 23:41 Cloudy with Mist and Fog 43 6.1 40 4.4 89 89 SSE 8 13 30.09 1019 3 4.82802 0.01 0.254
11:54 pm 23:54 Cloudy with Light Rain 43 6.1 40 4.4 89 89 SSE 9 15 30.07 1018 3 4.82802 0.01 0.254

Powered by AerisWeather